コプフ彗星

22P/Kopff (2009)

English version
Home page
Updated on January 2, 2011

---------------------------------------------------------------------

・ プロフィール

・ 写真集

・ 軌道要素

The following orbital elements are taken from MPC 66205:

Epoch 2009 May 9.0 TT = JDT 2454960.5
T 2009 May 25.4230 TT                                   MPC
q   1.577594             (2000.0)            P               Q
n   0.1529903      Peri.  162.8225      +0.2379496      +0.9687032
a   3.462263       Node   120.8923      -0.9005246      +0.2472924
e   0.544346       Incl.    4.7237      -0.3639167      +0.0214599
P   6.44
From 531 observations 1997-2009, mean residual 0".7.  Nongravitational
     parameters A1 = -0.34, A2 = -0.1048.

・ 星図

・ 光度変化

        m1 =  5.3 + 5 logΔ + 21.0 log r  [    ,-455]  (              〜2008年 2月25日)
        m1 = 25.5 + 5 logΔ - 20   log r  [-455,-317]  (2008年 2月25日〜2008年 7月12日)
        m1 =  5.3 + 5 logΔ + 21.0 log r  [-317,    ]  (2008年 7月12日〜              )

        ※ 灰色の曲線は、m1 = 5.3 + 5 logΔ + 21.0 log r の光度曲線です。

---------------------------------------------------------------------

軌道要素はMPCのEphemerides and Orbital Elementsに掲載されたものです。
星図は StellaNavigator Ver.2.0 for Windows (アストロアーツ 編著 / アスキー出版局刊) で作成したものです。
光度グラフはComet for Windowsで作成したものです。

---------------------------------------------------------------------

Copyright(C) Seiichi Yoshida (comet@aerith.net). All rights reserved.